Miscellaneous Local Product
Issued by NWS Hastings, NE

Home | Current Version | Previous Version | Graphics & Text | Print | Product List | Glossary On
Versions: 1 2 3 4 5 6 7 8 9 10 11 12 13 14 15 16 17 18 19 20 21 22 23 24 25 26 27 28 29 30 31 32 33 34 35 36 37 38 39 40 41 42 43 44 45 46 47 48 49 50
000
AXUS43 KGID 051202
MISGRI

GID CWA HOURLY WEATHER ROUNDUP
NATIONAL WEATHER SERVICE HASTINGS NE
700 AM CDT SUN JUL 05 2015

NOTE: "FAIR" INDICATES FEW OR NO CLOUDS BELOW 12,000 FEET WITH NO
SIGNIFICANT WEATHER AND/OR OBSTRUCTIONS TO VISIBILITY.

...SOUTH CENTRAL NEBRASKA...

CITY           SKY/WX    TMP DP  RH WIND       PRES   REMARKS
GRAND ISLAND   MOCLDY    71  65  81 S14G22    29.85F
HASTINGS       CLOUDY    71  65  81 S10       29.86F
KEARNEY        CLOUDY    70  64  83 S12       29.84F
ORD            CLOUDY    71  64  78 E6        29.85R
YORK           PTCLDY    70  66  88 S13G18    29.87S
AURORA         PTCLDY    70  67  90 S13G18    29.86S
LEXINGTON      PTCLDY    71  66  84 S13       29.84S
HOLDREGE       PTCLDY    69  64  84 S10       29.85S
HEBRON         MOCLDY    71  64  80 S10       29.88F

...NEBRASKA PANHANDLE...

CITY           SKY/WX    TMP DP  RH WIND       PRES   REMARKS
CHADRON        CLEAR     63  61  93 NW3       29.79F
ALLIANCE       CLEAR     64  62  93 S7        29.85S
SCOTTSBLUFF    MOCLDY    63  61  93 S3        29.87S
SIDNEY         PTCLDY    61  59  93 S3        29.90F

...WESTERN AND NORTH CENTRAL NEBRASKA...

CITY           SKY/WX    TMP DP  RH WIND       PRES   REMARKS
VALENTINE      CLEAR     68  57  68 S5        29.79R
AINSWORTH      CLEAR     74  64  71 S10       29.80R
ONEILL         PTCLDY    69  66  89 S10       29.82S
BROKEN BOW     MOCLDY    69  65  86 E9        29.85F
IMPERIAL       CLEAR     70  63  78 S10       29.86S
NORTH PLATTE   PTCLDY    72  63  73 E7        29.85R
MCCOOK         CLEAR     77  61  57 SW13      29.83F

...EASTERN NEBRASKA...

CITY           SKY/WX    TMP DP  RH WIND       PRES   REMARKS
NORFOLK        CLOUDY    72  66  81 NW9       29.91R
SO SIOUX CITY  CLOUDY    68  61  78 SE9       29.92R
TEKAMAH        CLOUDY    67  64  90 S5        29.93R
COLUMBUS       CLOUDY    72  63  73 S10G16    29.86R
ALBION         CLOUDY    70  64  79 SE7       29.86R
OMAHA EPPLEY   CLOUDY    70  64  81 S12       29.93R
OFFUTT AFB     MOCLDY    69  64  86 SE10      29.92R
MILLARD        CLOUDY    69  64  86 SE5       29.91R
LINCOLN        MOCLDY    71  65  81 S10       29.91R HAZE
NEBRASKA CITY  MOCLDY    67  65  91 S12       29.93F FOG
BEATRICE       PTCLDY    69  65  87 SE9       29.90F
FALLS CITY     PTCLDY    67  64  90 S8        29.93F FOG

...NORTHERN KANSAS...

CITY           SKY/WX    TMP DP  RH WIND       PRES   REMARKS
GOODLAND       CLEAR     67  62  84 S14       29.89F
HILL CITY      MOCLDY    74  66  76 W8        29.85F
NORTON         SUNNY     70  63  78 SE8       29.82F
PHILLIPSBURG   CLEAR     73  66  78 E8        29.84F
SMITH CENTER   CLEAR     72  64  78 SE9       29.87S
HAYS           MOCLDY    72  61  68 S8        29.88F
RUSSELL        PTCLDY    72  67  84 S15       29.87S
CONCORDIA      CLOUDY    73  67  81 S14       29.88F
SALINA         CLOUDY    77  68  73 S12       29.89F
TOPEKA         CLEAR     70  66  87 E5        29.96S FOG



USA.gov is the U.S. government's official web portal to all federal, state and local government web resources and services.